Portada
METAR-TAF:

METAR-TAF

Aeroports :

South St. Paul Municipal Airport (Richard E. Fleming Field)

South St. Paul, Minnesota, Estats Units d'Amèrica

latitud: 44-51-26N, longitud: 093-01-58W, altitud: 250 m

Observació

L'informe es va fer fa 28 minuts, a les 23:56 UTC
Vent 8 kt del Nord/Nord-Oest
Temperatura -13°C
Humitat 43%
Pressió 1027 hPa
Visibilitat: 16.1 km
Cel clar

METAR: KSGS 192356Z AUTO 34008KT 10SM CLR M13/M23 A3032 RMK AO2 T11351226 11115 21136

Hora: 18:24 (00:24 UTC)


TAF: manca

Observacions i pronòstics meteorològics de més de 4000 aeroports (METAR i TAF).

Les estacions disponibles són els punts grocs i vermells al mapa.

Posi el ratolí al punt desitjat per veure el nom de l'estació.

Feu clic per veure les observacions i els pronòstics meteorològics.

Per canviar el mapa: feu clic els botons verds amb una creu de color negre per apropar; al botó verd amb un guió per allunyar la imatge; o en les fletxes verdes per a mapes adjacents.


METAR-TAF: